Lynchburg, VA

11:12 AM EST on December 06, 2019 (GMT -0500)
Lynchburg Regional-Glenn

Weather History for KLYH - August, 2019

Change the Weather History Date:

Saturday, August 31, 2019

  Actual Average Record
Temperature  
Mean Temperature 75 °F 72 °F  
Max Temperature 91 °F 83 °F 104 °F (1932)
Min Temperature 59 °F 61 °F 48 °F (1946)
Degree Days  
Heating Degree Days 0 0  
Month to date heating degree days 0 0  
Since 1 June heating degree days 2 17  
Since 1 July heating degree days 0 3  
Cooling Degree Days 10 7  
Month to date cooling degree days 360 284  
Year to date cooling degree days 1215 898  
Since 1 June cooling degree days 1003 816  
Growing Degree Days 25 (Base 50)    
Moisture  
Dew Point 63 °F    
Average Humidity 68    
Maximum Humidity 100    
Minimum Humidity 38    
Precipitation  
Precipitation 0.00 in 0.11 in 2.53 in (1952)
Month to date precipitation 3.24 3.26  
Year to date precipitation 27.58 27.93  
Snow  
Snow 0.00 in - - ()
Month to date snowfall 0.0  
Since 1 June snowfall 0.0  
Since 1 July snowfall 0.0  
Snow Depth 0.00 in    
Sea Level Pressure  
Sea Level Pressure 30.16 in    
Wind  
Wind Speed 3 mph ()    
Max Wind Speed 12 mph    
Max Gust Speed 16 mph    
Visibility 10.0 miles    
Events      
T = Trace of Precipitation, MM = Missing Value Source: Averaged Metar Reports

Daily Weather History Graph

Daily Weather History Graph

Search for Another Location

Airport or City:

Astronomy

Aug. 31, 2019 Rise Set
Actual Time 6:46 AM EDT 7:47 PM EDT
Civil Twilight 6:19 AM EDT 8:14 PM EDT
Nautical Twilight 5:47 AM EDT 8:45 PM EDT
Astronomical Twilight 5:14 AM EDT 9:18 PM EDT
Moon 7:59 AM EDT (8/31) 9:00 PM EDT (8/31)
Length of Visible Light 13h 54m
Length of Day
13h 01m
New Moon, 2% of the Moon is Illuminated
Aug 31
New Moon
Sep 5
First Quarter
Sep 14
Full
Sep 21
Last Quarter
Sep 28
New

Hourly Weather History & Observations

Time (EDT) Temp. Heat Index Dew Point Humidity Pressure Visibility Wind Dir Wind Speed Gust Speed Precip Events Conditions
12:54 AM 63.0 °F - 61.0 °F 93% 30.14 in 10.0 mi Calm Calm - N/A   Clear
1:54 AM 63.0 °F - 61.0 °F 93% 30.14 in 10.0 mi Calm Calm - N/A   Clear
2:54 AM 61.0 °F - 60.1 °F 97% 30.12 in 10.0 mi Calm Calm - N/A   Clear
3:54 AM 61.0 °F - 60.1 °F 97% 30.13 in 10.0 mi Calm Calm - N/A   Clear
4:54 AM 60.1 °F - 59.0 °F 96% 30.14 in 10.0 mi Calm Calm - N/A   Clear
5:54 AM 61.0 °F - 60.1 °F 97% 30.14 in 10.0 mi Calm Calm - N/A   Clear
6:54 AM 60.1 °F - 59.0 °F 96% 30.16 in 10.0 mi Calm Calm - N/A   Clear
7:54 AM 66.9 °F - 64.0 °F 90% 30.18 in 10.0 mi Calm Calm - N/A   Clear
8:54 AM 75.0 °F - 64.0 °F 69% 30.19 in 10.0 mi Variable 3.5 mph - N/A   Clear
9:54 AM 80.1 °F 81.7 °F 64.0 °F 58% 30.19 in 10.0 mi NNE 4.6 mph - N/A   Clear
10:54 AM 84.9 °F 86.1 °F 64.0 °F 49% 30.19 in 10.0 mi East 9.2 mph - N/A   Clear
11:54 AM 86.0 °F 87.6 °F 64.9 °F 49% 30.19 in 10.0 mi Variable 5.8 mph - N/A   Clear
12:54 PM 88.0 °F 88.7 °F 63.0 °F 43% 30.18 in 10.0 mi ESE 9.2 mph - N/A   Clear
1:54 PM 89.1 °F 90.3 °F 64.0 °F 43% 30.18 in 10.0 mi East 10.4 mph - N/A   Clear
2:54 PM 91.0 °F 91.5 °F 62.1 °F 38% 30.17 in 10.0 mi SE 9.2 mph - N/A   Scattered Clouds
3:54 PM 90.0 °F 91.7 °F 64.9 °F 43% 30.15 in 10.0 mi ENE 5.8 mph - N/A   Scattered Clouds
4:54 PM 90.0 °F 90.6 °F 63.0 °F 40% 30.14 in 10.0 mi ENE 6.9 mph - N/A   Partly Cloudy
5:54 PM 89.1 °F 90.0 °F 63.0 °F 42% 30.13 in 10.0 mi East 4.6 mph - N/A   Clear
6:54 PM 86.0 °F 87.6 °F 64.9 °F 49% 30.14 in 10.0 mi East 4.6 mph - N/A   Clear
7:54 PM 79.0 °F - 66.0 °F 64% 30.14 in 10.0 mi East 3.5 mph - N/A   Clear
8:54 PM 75.0 °F - 66.0 °F 73% 30.15 in 10.0 mi NNE 3.5 mph - N/A   Clear
9:54 PM 80.1 °F 82.1 °F 66.0 °F 62% 30.17 in 10.0 mi NE 8.1 mph - N/A   Mostly Cloudy
10:54 PM 77.0 °F - 66.9 °F 71% 30.18 in 10.0 mi ENE 5.8 mph - N/A   Partly Cloudy
11:54 PM 77.0 °F - 66.9 °F 71% 30.20 in 10.0 mi Calm Calm - N/A   Overcast